AFR94QB LFPG-LFBZ

Flight info

Callsign AFR94QB
Flight time 1h 4m
Altitude 33000
Route AGOPA DCT ARKIP DCT ARMAL DCT ARTAX DCT BEBIX DCT LMG DCT UVELI DCT OSMOB DCT VAVIX DCT MAGEC
Aircraft A320/M-SDE3FGHIRWY/LB1

Departure

Time 2026-05-08 08:05
Airport Charles de Gaulle International Airport (LFPG)

Arrival

Time 2026-05-08 09:09
Airport Biarritz Pays Basque airport (LFBZ)
Time Latitude Longitude Altitude Speed Heading
2026-05-08 07:54 49.00584 2.58016 354 ft 0 kts 288°
2026-05-08 07:54 49.00578 2.58041 363 ft 3 kts 284°
2026-05-08 07:55 49.00574 2.58071 364 ft 3 kts 275°
2026-05-08 07:55 49.00574 2.58102 360 ft 3 kts 262°
2026-05-08 07:55 49.00577 2.58131 358 ft 3 kts 252°
2026-05-08 07:55 49.00585 2.58160 364 ft 3 kts 248°
2026-05-08 07:56 49.00588 2.58172 364 ft 0 kts 251°
2026-05-08 07:57 49.00589 2.58169 364 ft 1 kts 271°
2026-05-08 07:58 49.00596 2.58161 359 ft 0 kts 323°
2026-05-08 07:58 49.00602 2.58155 357 ft 3 kts 327°
2026-05-08 07:58 49.00654 2.58138 358 ft 9 kts 353°
2026-05-08 07:58 49.00711 2.58130 354 ft 8 kts 355°
2026-05-08 07:59 49.00757 2.58124 358 ft 6 kts 353°
2026-05-08 07:59 49.00809 2.58112 354 ft 12 kts 353°
2026-05-08 07:59 49.00898 2.58056 357 ft 16 kts 296°
2026-05-08 07:59 49.00894 2.57839 362 ft 25 kts 264°
2026-05-08 08:00 49.00877 2.57540 356 ft 30 kts 265°
2026-05-08 08:00 49.00860 2.57224 354 ft 31 kts 265°
2026-05-08 08:00 49.00843 2.56897 354 ft 31 kts 265°
2026-05-08 08:00 49.00825 2.56562 354 ft 32 kts 265°
2026-05-08 08:01 49.00796 2.56222 354 ft 33 kts 261°
2026-05-08 08:01 49.00761 2.55877 354 ft 33 kts 262°
2026-05-08 08:01 49.00731 2.55526 356 ft 33 kts 264°
2026-05-08 08:01 49.00682 2.55282 354 ft 23 kts 220°
2026-05-08 08:02 49.00530 2.55296 362 ft 23 kts 166°
2026-05-08 08:02 49.00360 2.55367 354 ft 27 kts 164°
2026-05-08 08:02 49.00178 2.55447 354 ft 28 kts 163°
2026-05-08 08:02 48.99989 2.55532 357 ft 29 kts 163°
2026-05-08 08:03 48.99853 2.55662 356 ft 23 kts 118°
2026-05-08 08:03 48.99778 2.55802 362 ft 15 kts 174°
2026-05-08 08:03 48.99666 2.55818 359 ft 17 kts 175°
2026-05-08 08:03 48.99605 2.55941 353 ft 17 kts 87°
2026-05-08 08:04 48.99615 2.56123 362 ft 19 kts 85°
2026-05-08 08:04 48.99639 2.56533 359 ft 72 kts 85°
2026-05-08 08:04 48.99697 2.57608 356 ft 130 kts 85°
2026-05-08 08:04 48.99776 2.59213 428 ft 167 kts 84°
2026-05-08 08:05 48.99855 2.61016 991 ft 172 kts 85°
2026-05-08 08:05 48.99944 2.62837 1718 ft 173 kts 85°
2026-05-08 08:05 49.00048 2.64695 2271 ft 184 kts 85°
2026-05-08 08:05 49.00172 2.66748 2632 ft 204 kts 84°
2026-05-08 08:06 49.00296 2.69018 3020 ft 226 kts 85°
2026-05-08 08:06 49.00424 2.71494 3589 ft 242 kts 85°
2026-05-08 08:06 49.00557 2.74143 4150 ft 260 kts 85°
2026-05-08 08:06 49.00692 2.76929 4943 ft 266 kts 86°
2026-05-08 08:07 49.00514 2.79756 5762 ft 273 kts 107°
2026-05-08 08:07 48.99586 2.82278 6559 ft 278 kts 134°
2026-05-08 08:07 48.97995 2.83933 7345 ft 281 kts 161°
2026-05-08 08:07 48.96073 2.84324 8128 ft 281 kts 188°
2026-05-08 08:08 48.94218 2.83446 8948 ft 281 kts 212°
2026-05-08 08:08 48.93163 2.82249 9510 ft 281 kts 227°
2026-05-08 08:08 48.91992 2.79928 10296 ft 282 kts 236°
2026-05-08 08:08 48.90836 2.77400 10629 ft 303 kts 236°
2026-05-08 08:09 48.89600 2.74696 11076 ft 316 kts 236°
2026-05-08 08:09 48.88880 2.73129 11465 ft 319 kts 235°
2026-05-08 08:09 48.88319 2.71908 11784 ft 320 kts 235°
2026-05-08 08:09 48.87019 2.69090 12547 ft 323 kts 234°
2026-05-08 08:10 48.85717 2.66287 13300 ft 326 kts 234°
2026-05-08 08:10 48.84403 2.63462 14026 ft 329 kts 234°
2026-05-08 08:10 48.83079 2.60617 14649 ft 333 kts 234°
2026-05-08 08:10 48.81740 2.57732 15262 ft 336 kts 234°
2026-05-08 08:11 48.80390 2.54818 15890 ft 339 kts 234°
2026-05-08 08:11 48.79025 2.51871 16527 ft 342 kts 234°
2026-05-08 08:11 48.77666 2.48950 17150 ft 345 kts 234°
2026-05-08 08:11 48.76276 2.45963 17774 ft 348 kts 234°
2026-05-08 08:12 48.74871 2.42948 18375 ft 352 kts 234°
2026-05-08 08:12 48.73344 2.40042 18923 ft 354 kts 226°
2026-05-08 08:12 48.71464 2.37609 19462 ft 357 kts 215°
2026-05-08 08:12 48.69335 2.35638 19997 ft 360 kts 211°
2026-05-08 08:13 48.67173 2.33701 20539 ft 363 kts 211°
2026-05-08 08:13 48.64997 2.31751 21072 ft 365 kts 211°
2026-05-08 08:13 48.62804 2.29784 21605 ft 368 kts 211°
2026-05-08 08:13 48.60595 2.27796 22141 ft 370 kts 212°
2026-05-08 08:14 48.58375 2.25795 22667 ft 373 kts 212°
2026-05-08 08:14 48.56134 2.23777 23192 ft 376 kts 212°
2026-05-08 08:14 48.53880 2.21753 23700 ft 379 kts 212°
2026-05-08 08:14 48.51606 2.19720 24123 ft 381 kts 211°
2026-05-08 08:15 48.49190 2.17971 24308 ft 392 kts 198°
2026-05-08 08:15 48.46463 2.17346 24569 ft 401 kts 185°
2026-05-08 08:15 48.43671 2.17114 24913 ft 404 kts 185°
2026-05-08 08:15 48.40861 2.16889 25268 ft 406 kts 185°
2026-05-08 08:16 48.38031 2.16660 25627 ft 408 kts 185°
2026-05-08 08:16 48.35187 2.16424 25978 ft 411 kts 185°
2026-05-08 08:16 48.32322 2.16189 26330 ft 413 kts 185°
2026-05-08 08:16 48.29448 2.15953 26672 ft 415 kts 185°
2026-05-08 08:17 48.26556 2.15697 27018 ft 417 kts 186°
2026-05-08 08:17 48.23657 2.15385 27347 ft 419 kts 187°
2026-05-08 08:17 48.20741 2.15032 27670 ft 421 kts 187°
2026-05-08 08:17 48.17812 2.14662 27946 ft 424 kts 187°
2026-05-08 08:18 48.14860 2.14290 28253 ft 427 kts 187°
2026-05-08 08:18 48.11894 2.13926 28550 ft 429 kts 187°
2026-05-08 08:18 48.08905 2.13574 28852 ft 431 kts 187°
2026-05-08 08:18 48.05905 2.13229 29135 ft 434 kts 187°
2026-05-08 08:19 48.02889 2.12886 29414 ft 436 kts 187°
2026-05-08 08:19 47.99855 2.12540 29684 ft 438 kts 187°
2026-05-08 08:19 47.96806 2.12191 29898 ft 441 kts 187°
2026-05-08 08:19 47.93739 2.11839 30117 ft 444 kts 187°
2026-05-08 08:20 47.90652 2.11484 30327 ft 446 kts 187°
2026-05-08 08:20 47.87553 2.11125 30483 ft 449 kts 188°
2026-05-08 08:20 47.84423 2.10768 30649 ft 452 kts 188°
2026-05-08 08:20 47.81282 2.10408 30840 ft 454 kts 188°
2026-05-08 08:21 47.78136 2.10045 31019 ft 455 kts 188°
2026-05-08 08:21 47.74985 2.09599 31212 ft 454 kts 194°
2026-05-08 08:21 47.71992 2.08259 31425 ft 447 kts 207°
2026-05-08 08:21 47.69126 2.06451 31667 ft 447 kts 207°
2026-05-08 08:22 47.66266 2.04631 31936 ft 447 kts 207°
2026-05-08 08:22 47.63417 2.02820 32219 ft 446 kts 206°
2026-05-08 08:22 47.60535 2.01085 32499 ft 446 kts 205°
2026-05-08 08:22 47.57637 1.99433 32767 ft 446 kts 205°
2026-05-08 08:23 47.54728 1.97823 32974 ft 447 kts 204°
2026-05-08 08:23 47.48986 1.94674 33027 ft 439 kts 205°
2026-05-08 08:24 47.43284 1.91502 33024 ft 437 kts 205°
2026-05-08 08:24 47.37601 1.88286 33023 ft 437 kts 205°
2026-05-08 08:25 47.31914 1.85068 33029 ft 438 kts 205°
2026-05-08 08:25 47.26215 1.81867 33026 ft 439 kts 205°
2026-05-08 08:26 47.20510 1.78680 33018 ft 439 kts 205°
2026-05-08 08:26 47.14799 1.75509 32999 ft 439 kts 205°
2026-05-08 08:27 47.09304 1.71796 33002 ft 432 kts 216°
2026-05-08 08:27 47.04112 1.67198 33022 ft 442 kts 216°
2026-05-08 08:28 46.98788 1.62468 33013 ft 453 kts 216°
2026-05-08 08:28 46.93356 1.57672 33025 ft 458 kts 216°
2026-05-08 08:29 46.87884 1.52872 33022 ft 459 kts 216°
2026-05-08 08:29 46.82406 1.48079 33020 ft 459 kts 216°
2026-05-08 08:30 46.76933 1.43283 33012 ft 459 kts 216°
2026-05-08 08:30 46.68726 1.36120 33000 ft 459 kts 216°
2026-05-08 08:31 46.63281 1.31380 32994 ft 459 kts 216°
2026-05-08 08:31 46.57803 1.26618 32993 ft 459 kts 216°
2026-05-08 08:32 46.52310 1.21868 32973 ft 460 kts 216°
2026-05-08 08:32 46.46808 1.17125 32965 ft 461 kts 216°
2026-05-08 08:33 46.41288 1.12385 32974 ft 461 kts 216°
2026-05-08 08:33 46.35765 1.07665 32962 ft 461 kts 216°
2026-05-08 08:34 46.30238 1.02951 32975 ft 461 kts 216°
2026-05-08 08:34 46.24703 0.98253 32985 ft 462 kts 216°
2026-05-08 08:35 46.19164 0.93557 32990 ft 462 kts 216°
2026-05-08 08:35 46.13627 0.88858 32979 ft 461 kts 216°
2026-05-08 08:36 46.08094 0.84175 32992 ft 461 kts 216°
2026-05-08 08:36 46.03492 0.80296 32984 ft 461 kts 216°
2026-05-08 08:37 45.97021 0.74875 32983 ft 460 kts 216°
2026-05-08 08:37 45.91502 0.70247 32978 ft 459 kts 216°
2026-05-08 08:38 45.85992 0.65638 32971 ft 459 kts 215°
2026-05-08 08:38 45.80503 0.61056 32965 ft 460 kts 215°
2026-05-08 08:39 45.74956 0.56444 32956 ft 461 kts 215°
2026-05-08 08:39 45.69406 0.51840 32946 ft 461 kts 215°
2026-05-08 08:40 45.63847 0.47237 32953 ft 461 kts 215°
2026-05-08 08:40 45.58296 0.42634 32949 ft 462 kts 215°
2026-05-08 08:41 45.52737 0.38052 32929 ft 461 kts 214°
2026-05-08 08:41 45.47198 0.33500 32955 ft 459 kts 214°
2026-05-08 08:42 45.41671 0.28954 32962 ft 459 kts 214°
2026-05-08 08:42 45.36142 0.24419 32955 ft 458 kts 214°
2026-05-08 08:43 45.30620 0.19910 32959 ft 458 kts 214°
2026-05-08 08:43 45.25093 0.15414 32964 ft 458 kts 214°
2026-05-08 08:44 45.19569 0.10919 32961 ft 457 kts 214°
2026-05-08 08:44 45.14057 0.06427 32950 ft 457 kts 214°
2026-05-08 08:45 45.08541 0.01960 32954 ft 457 kts 214°
2026-05-08 08:45 45.03039 -0.02526 32961 ft 456 kts 214°
2026-05-08 08:46 44.97571 -0.07057 32956 ft 454 kts 214°
2026-05-08 08:46 44.92127 -0.11566 32972 ft 453 kts 213°
2026-05-08 08:47 44.86685 -0.16050 32969 ft 449 kts 213°
2026-05-08 08:47 44.81378 -0.20391 32535 ft 450 kts 213°
2026-05-08 08:48 44.78649 -0.22624 31375 ft 456 kts 213°
2026-05-08 08:48 44.75932 -0.24843 30706 ft 449 kts 213°
2026-05-08 08:48 44.73243 -0.27038 29979 ft 446 kts 213°
2026-05-08 08:48 44.70563 -0.29226 29072 ft 447 kts 213°
2026-05-08 08:49 44.67833 -0.31454 28532 ft 459 kts 213°
2026-05-08 08:49 44.65064 -0.33710 27915 ft 460 kts 213°
2026-05-08 08:49 44.62349 -0.36061 27302 ft 457 kts 215°
2026-05-08 08:49 44.59724 -0.38520 26705 ft 452 kts 217°
2026-05-08 08:50 44.57159 -0.41051 26117 ft 448 kts 217°
2026-05-08 08:50 44.54635 -0.43589 25555 ft 445 kts 217°
2026-05-08 08:50 44.52123 -0.46106 24994 ft 442 kts 217°
2026-05-08 08:50 44.49620 -0.48572 24449 ft 439 kts 216°
2026-05-08 08:51 44.47111 -0.51003 23917 ft 436 kts 216°
2026-05-08 08:51 44.44619 -0.53395 23244 ft 434 kts 216°
2026-05-08 08:51 44.42147 -0.55768 22681 ft 429 kts 216°
2026-05-08 08:51 44.39687 -0.58127 22176 ft 430 kts 215°
2026-05-08 08:52 44.37225 -0.60487 21645 ft 427 kts 215°
2026-05-08 08:52 44.34784 -0.62830 21121 ft 424 kts 215°
2026-05-08 08:52 44.32365 -0.65148 20586 ft 421 kts 214°
2026-05-08 08:52 44.29960 -0.67445 20060 ft 417 kts 214°
2026-05-08 08:53 44.27581 -0.69717 19507 ft 413 kts 214°
2026-05-08 08:53 44.25219 -0.71970 18974 ft 410 kts 214°
2026-05-08 08:53 44.22872 -0.74210 18426 ft 407 kts 214°
2026-05-08 08:53 44.20555 -0.76426 17850 ft 403 kts 214°
2026-05-08 08:54 44.18250 -0.78628 17325 ft 401 kts 214°
2026-05-08 08:54 44.15949 -0.80821 16816 ft 399 kts 213°
2026-05-08 08:54 44.13671 -0.82985 16291 ft 395 kts 213°
2026-05-08 08:54 44.12169 -0.84408 15951 ft 393 kts 213°
2026-05-08 08:55 44.09917 -0.86541 15453 ft 391 kts 213°
2026-05-08 08:55 44.07675 -0.88664 14947 ft 388 kts 213°
2026-05-08 08:55 44.05457 -0.90765 14447 ft 385 kts 214°
2026-05-08 08:55 44.03247 -0.92862 13942 ft 383 kts 214°
2026-05-08 08:56 44.01052 -0.94938 13410 ft 380 kts 214°
2026-05-08 08:56 43.98877 -0.96989 12898 ft 376 kts 214°
2026-05-08 08:56 43.96724 -0.99019 12388 ft 373 kts 213°
2026-05-08 08:56 43.94580 -1.01042 11878 ft 371 kts 213°
2026-05-08 08:57 43.92477 -1.03026 11511 ft 354 kts 213°
2026-05-08 08:57 43.90513 -1.04878 11044 ft 333 kts 213°
2026-05-08 08:57 43.88618 -1.06662 10393 ft 323 kts 213°
2026-05-08 08:57 43.86817 -1.08352 10138 ft 301 kts 213°
2026-05-08 08:58 43.85271 -1.10145 9860 ft 285 kts 230°
2026-05-08 08:58 43.84137 -1.12374 9251 ft 281 kts 234°
2026-05-08 08:58 43.83066 -1.14584 9049 ft 273 kts 234°
2026-05-08 08:58 43.82019 -1.16762 8913 ft 270 kts 234°
2026-05-08 08:59 43.80975 -1.18937 8704 ft 272 kts 234°
2026-05-08 08:59 43.79938 -1.21089 8508 ft 267 kts 233°
2026-05-08 08:59 43.78904 -1.23232 8442 ft 268 kts 233°
2026-05-08 08:59 43.77869 -1.25373 8382 ft 268 kts 233°
2026-05-08 09:00 43.76832 -1.27508 8317 ft 267 kts 233°
2026-05-08 09:00 43.75793 -1.29640 8256 ft 268 kts 233°
2026-05-08 09:00 43.74756 -1.31769 8195 ft 267 kts 233°
2026-05-08 09:00 43.73715 -1.33905 8135 ft 267 kts 233°
2026-05-08 09:01 43.72678 -1.36030 8079 ft 267 kts 233°
2026-05-08 09:01 43.71640 -1.38153 8015 ft 266 kts 233°
2026-05-08 09:01 43.70615 -1.40248 7960 ft 266 kts 233°
2026-05-08 09:01 43.69566 -1.42396 7893 ft 266 kts 233°
2026-05-08 09:02 43.68532 -1.44510 7831 ft 266 kts 233°
2026-05-08 09:02 43.67511 -1.46595 7772 ft 265 kts 233°
2026-05-08 09:02 43.66477 -1.48703 7714 ft 265 kts 233°
2026-05-08 09:02 43.65442 -1.50811 7649 ft 265 kts 233°
2026-05-08 09:03 43.64408 -1.52913 7413 ft 264 kts 233°
2026-05-08 09:03 43.63382 -1.55001 7077 ft 261 kts 233°
2026-05-08 09:03 43.62378 -1.57055 6728 ft 253 kts 233°
2026-05-08 09:03 43.61403 -1.59046 6464 ft 249 kts 234°
2026-05-08 09:04 43.60442 -1.61006 6127 ft 246 kts 233°
2026-05-08 09:04 43.59489 -1.62947 5805 ft 243 kts 233°
2026-05-08 09:04 43.58549 -1.64863 5469 ft 239 kts 233°
2026-05-08 09:04 43.57639 -1.66719 5155 ft 227 kts 232°
2026-05-08 09:05 43.56708 -1.68403 4810 ft 215 kts 216°
2026-05-08 09:05 43.55409 -1.69198 4411 ft 202 kts 182°
2026-05-08 09:05 43.54030 -1.69093 4057 ft 195 kts 173°
2026-05-08 09:05 43.52672 -1.68813 3701 ft 200 kts 171°
2026-05-08 09:06 43.51287 -1.68504 3332 ft 203 kts 171°
2026-05-08 09:06 43.49907 -1.68183 2944 ft 198 kts 167°
2026-05-08 09:06 43.48757 -1.67212 2421 ft 202 kts 126°
2026-05-08 09:06 43.48313 -1.65367 1947 ft 200 kts 108°
2026-05-08 09:07 43.47949 -1.63569 1733 ft 190 kts 110°
2026-05-08 09:07 43.47562 -1.61918 1504 ft 175 kts 114°
2026-05-08 09:07 43.47171 -1.60378 1217 ft 164 kts 110°
2026-05-08 09:07 43.46929 -1.58947 1096 ft 147 kts 103°
2026-05-08 09:08 43.46814 -1.57584 885 ft 140 kts 96°
2026-05-08 09:08 43.46794 -1.56250 709 ft 140 kts 93°
2026-05-08 09:08 43.46807 -1.54926 507 ft 139 kts 91°
2026-05-08 09:08 43.46823 -1.53600 286 ft 138 kts 91°
2026-05-08 09:09 43.46835 -1.52409 241 ft 103 kts 89°
2026-05-08 09:09 43.46842 -1.51652 236 ft 62 kts 88°
2026-05-08 09:09 43.46852 -1.51149 234 ft 34 kts 88°
2026-05-08 09:09 43.46880 -1.51005 237 ft 10 kts 60°
2026-05-08 09:10 43.46880 -1.50967 238 ft 3 kts 136°
2026-05-08 09:10 43.46851 -1.51019 236 ft 13 kts 267°
2026-05-08 09:10 43.46850 -1.51174 236 ft 20 kts 269°
2026-05-08 09:10 43.46848 -1.51392 235 ft 25 kts 269°
2026-05-08 09:11 43.46845 -1.51649 236 ft 30 kts 269°
2026-05-08 09:11 43.46842 -1.51949 239 ft 31 kts 269°
2026-05-08 09:11 43.46860 -1.52158 239 ft 15 kts 319°
2026-05-08 09:11 43.46956 -1.52180 240 ft 13 kts 346°
2026-05-08 09:12 43.46997 -1.52263 243 ft 12 kts 271°
2026-05-08 09:12 43.46996 -1.52402 243 ft 15 kts 269°
2026-05-08 09:12 43.46995 -1.52528 245 ft 14 kts 269°
2026-05-08 09:12 43.46993 -1.52693 245 ft 20 kts 269°
2026-05-08 09:13 43.47002 -1.52851 245 ft 14 kts 297°
2026-05-08 09:13 43.47053 -1.52937 245 ft 11 kts 279°
2026-05-08 09:13 43.47053 -1.53034 245 ft 9 kts 270°
2026-05-08 09:13 43.47051 -1.53114 245 ft 6 kts 266°
2026-05-08 09:14 43.47077 -1.53133 245 ft 4 kts
2026-05-08 09:14 43.47100 -1.53121 245 ft 3 kts 19°
2026-05-08 09:14 43.47114 -1.53114 245 ft 2 kts 19°
2026-05-08 09:14 43.47117 -1.53113 245 ft 0 kts 20°
2026-05-08 10:03 43.47101 -1.53120 245 ft 3 kts
2026-05-08 10:03 43.47082 -1.53120 245 ft 3 kts 341°
2026-05-08 10:03 43.47065 -1.53107 245 ft 3 kts 311°
2026-05-08 10:04 43.47055 -1.53085 245 ft 3 kts 284°
2026-05-08 10:04 43.47053 -1.53067 245 ft 0 kts 269°